This demonstration page uses our WeatherBlox Daily Observations layout. Learn more.

Left ArrowRight Arrow

Hourly Observations for October 3, 2018

Temp ( °F °C ) Dew Point ( °F °C ) Humidity (%) Winds ( mph kmh ) Pressure ( in mb ) Visibility ( mi km ) Precip ( " mm )
12:57 am 00:57 Partly Cloudy 68 20 59 15 73 73 S 14 22 29.72 1007 10 16 0.00 0.00
1:57 am 01:57 Clear 69 20.6 60 15.6 73 73 S 17 28 29.68 1005 10 16 0.00 0.03
2:57 am 02:57 Clear 69 20.6 61 16.1 76 76 S 21 33 29.65 1004 10 16 0.00 0.00
3:57 am 03:57 Clear 68 20 62 16.7 81 81 S 20 31 29.63 1003 10 16 0.00 0.00
4:57 am 04:57 Clear 68 20 62 16.7 81 81 S 17 28 29.61 1003 10 16 0.00 0.00
5:57 am 05:57 Clear 68 20 62 16.7 81 81 S 17 28 29.58 1002 10 16 0.00 0.00
6:57 am 06:57 Clear 67 19.4 62 16.7 84 84 S 16 26 29.58 1002 10 16 0.00 0.00
7:57 am 07:57 Sunny 67 19.4 62 16.7 84 84 S 15 24 29.58 1002 10 16 0.00 0.00
8:57 am 08:57 Sunny 69 20.6 62 16.7 78 78 SSW 15 24 29.60 1002 10 16 0.00 0.00
9:57 am 09:57 Sunny 73 22.8 61 16.1 66 66 SW 23 37 29.60 1002 10 16 0.00 0.00
10:57 am 10:57 Sunny 77 25 60 15.6 56 56 WSW 13 20 29.61 1003 10 16 0.00 0.00
11:57 am 11:57 Sunny 82 27.8 59 15 46 46 WSW 13 20 29.60 1003 10 16 0.00 0.00
12:57 pm 12:57 Sunny 87 30.6 56 13.3 35 35 W 16 26 29.60 1002 10 16 0.00 0.00
1:57 pm 13:57 Sunny 91 32.8 51 10.6 26 26 W 22 35 29.60 1002 10 16 0.00 0.00
2:57 pm 14:57 Sunny 93 33.9 51 10.6 24 24 WNW 16 26 29.60 1002 10 16 0.00 0.00
3:57 pm 15:57 Sunny 92 33.3 50 10 24 24 WNW 20 31 29.62 1003 10 16 0.00 0.00
4:57 pm 16:57 Sunny 91 32.8 47 8.3 22 22 NNW 21 33 29.67 1005 10 16 0.00 0.00
5:57 pm 17:57 Sunny 72 22.2 52 11.1 50 50 N 28 44 29.81 1010 10 16 0.00 0.00
6:57 pm 18:57 Sunny 65 18.3 48 8.9 54 54 N 26 43 29.91 1013 10 16 0.00 0.00
7:57 pm 19:57 Clear 61 16.1 43 6.1 52 52 N 20 31 29.98 1015 10 16 0.00 0.00
8:57 pm 20:57 Clear 58 14.4 41 5 53 53 N 18 30 30.00 1016 10 16 0.00 0.00
9:57 pm 21:57 Clear 56 13.3 41 5 57 57 N 18 30 30.03 1017 10 16 0.00 0.00
10:57 pm 22:57 Clear 52 11.1 36 2.2 55 55 N 29 46 30.06 1018 10 16 0.00 0.00
11:57 pm 23:57 Clear 48 8.9 35 1.7 61 61 NNE 20 31 30.10 1019 10 16 0.00 0.00

Powered by AerisWeather